[[{"header":{"parameterUnit":"m.s-1","parameterCategory":1,"la1":30.2991,"la2":30.254,"lo1":-89.0895,"lo2":-89.0444,"dy":0.0017,"dx":0.0017,"nx":28,"ny":28,"refTime":"2023-07-23T09:00:00:Z","depth":0,"parameterNumber":2,"parameterNumberName":"U-component_of_WINDS"},"data":[0,0,0,0,0,0,0,0,0,0,0,0,0,0,0,0,0,0,0,0,0,0,0,0,0,0,0,0,0,0,0,0,0,0,0,0,0,0,0,0,0,0,0,0,0,0,0,0,0,0,0,0,0,0,0,0,0,0,0.0381,0.0382,0,0.0448,0.0449,0.045,0.0408,0.0406,0.0404,0.0402,0.0478,0.0482,0.0486,0,0,0,0,0,0,0,0,0,0,0,0,0,0.0226,0.0229,0.0381,0.0382,0.0383,0.0448,0.0449,0.045,0.0409,0.0406,0.0404,0.0402,0.0477,0.0481,0.0486,0,0,0,0,0,0,0,0,0,0,0,0,0,0.0293,0.023,0.0381,0.037,0.037,0.0448,0.0449,0.045,0.0409,0.0406,0.0403,0.04,0.0475,0.0481,0.0487,0.0582,0,0,0.0504,0.0507,0,0,0,0,0,0,0,0,0.0289,0.0299,0.0371,0.0371,0.0371,0.0417,0.0422,0.0494,0.041,0.0394,0.0402,0.0399,0.0461,0.0467,0.0487,0.0585,0.0589,0.0505,0.0508,0.0511,0.0513,0,0,0,0,0,0,0,0.0285,0.0296,0.0408,0.0372,0.0372,0.0364,0.037,0.0435,0.0444,0.0395,0.0393,0.0401,0.046,0.0481,0.0488,0.059,0.0505,0.051,0.0514,0.0516,0.0773,0.0776,0,0,0,0,0,0,0.028,0.0292,0.0406,0.041,0.0322,0.0369,0.0376,0.0405,0.0443,0.0445,0.0403,0.0399,0.0473,0.0481,0.0491,0.0607,0.0511,0.0516,0.052,0.077,0.0774,0.0777,0,0,0,0,0,0,0.0277,0.029,0.0403,0.035,0.0364,0.0375,0.0408,0.0408,0.0429,0.0448,0.045,0.0423,0.0471,0.0483,0.056,0.0609,0.0519,0.0524,0.0766,0.0771,0.0776,0.0839,0,0,0,0,0,0,0.0272,0.0289,0.0324,0.0351,0.0367,0.0469,0.041,0.0411,0.0438,0.0433,0.0467,0.047,0.0469,0.0551,0.0565,0.0615,0.0529,0.0761,0.0768,0.0774,0.0833,0.0845,0.0857,0,0,0,0,0,0.0267,0.034,0.0326,0.034,0.041,0.0471,0.0481,0.0476,0.0442,0.0478,0.0491,0.0469,0.06,0.0559,0.0575,0.0628,0.0758,0.0766,0.0774,0.0827,0.0843,0.0856,0,0,0,0,0,0,0.032,0.0343,0.0328,0.0411,0.0439,0.0464,0.051,0.0493,0.0533,0.0527,0.0521,0.0529,0.0611,0.0626,0.058,0.0723,0.0675,0.0686,0.071,0.0725,0.0737,0.0733,0.0534,0,0,0,0,0,0.0341,0.0387,0.0405,0.0478,0.0492,0.0499,0.0525,0.0519,0.0549,0.0562,0.058,0.0612,0.0661,0.0694,0.0739,0.0834,0.0843,0.0878,0.089,0.0899,0.091,0.0965,0.0981,0.0802,0.0802,0.0802,0,0,0.0386,0.0404,0.0434,0.0489,0.051,0.0561,0.0509,0.0564,0.0603,0.0571,0.0645,0.066,0.0696,0.0782,0.0822,0.0798,0.0961,0.0909,0.0917,0.0922,0.0974,0.0991,0.1006,0.0807,0.0807,0.0806,0,0,0.0494,0.0511,0.0574,0.0596,0.0628,0.0632,0.0647,0.0675,0.0683,0.0756,0.0734,0.0781,0.0864,0.0891,0.0916,0.1035,0.1018,0.105,0.1115,0.1168,0.1182,0.1195,0.1241,0.1257,0.106,0.1061,0.1061,0,0.0547,0.0619,0.0609,0.0666,0.0693,0.0664,0.073,0.0752,0.0799,0.0819,0.0791,0.0896,0.0918,0.1012,0.1041,0.1061,0.1081,0.1048,0.118,0.1193,0.1204,0.1248,0.1265,0.1064,0.1064,0.1064,0.1063,0,0.0684,0.0735,0.0783,0.0826,0.0858,0.0919,0.0921,0.0954,0.0945,0.0953,0.103,0.1055,0.1107,0.1128,0.1121,0.1223,0.1207,0.118,0.1132,0.1226,0.1267,0.1283,0.107,0.1069,0.1068,0.1067,0,0,0.0829,0.0866,0.0884,0.0905,0.0938,0.0979,0.104,0.1088,0.1118,0.1151,0.1205,0.1276,0.1252,0.128,0.1275,0.1321,0.1419,0.1289,0.1289,0.1315,0.1537,0.156,0.1579,0.1406,0.1409,0.1411,0.1535,0,0.0942,0.1046,0.1039,0.1139,0.1188,0.1161,0.1215,0.1243,0.1252,0.1297,0.1308,0.136,0.1321,0.1338,0.1382,0.1397,0.1464,0.1388,0.146,0.1462,0.1455,0.16,0.1624,0.1739,0.1551,0.1553,0.1555,0,0.1087,0.1124,0.1228,0.1255,0.1276,0.1324,0.1369,0.1411,0.1443,0.1447,0.1479,0.1467,0.1532,0.148,0.1572,0.152,0.1549,0.1561,0.1565,0.1575,0.1517,0.1617,0.1776,0.1795,0.158,0.1578,0.1576,0,0.1187,0.1262,0.1334,0.1352,0.1386,0.1421,0.1437,0.1466,0.1496,0.1536,0.1556,0.1604,0.1631,0.1669,0.1672,0.1633,0.1766,0.1713,0.1775,0.1775,0.1806,0.1805,0.1976,0.1819,0.1819,0.1819,0.1818,0,0.1315,0.1381,0.138,0.1425,0.1499,0.1491,0.1565,0.1578,0.1604,0.1654,0.1633,0.1681,0.1679,0.1729,0.1731,0.1809,0.1821,0.1828,0.1829,0.1832,0.1832,0.1854,0.1847,0.1823,0.1822,0.1821,0.182,0,0.144,0.1441,0.1519,0.1544,0.1552,0.1606,0.1628,0.1673,0.1679,0.1743,0.1757,0.1769,0.1826,0.1831,0.1898,0.19,0.1995,0.1985,0.1984,0.1984,0.2046,0.2042,0.224,0.2267,0.2089,0.2091,0.2092,0,0.1523,0.1573,0.1603,0.1633,0.1651,0.17,0.1731,0.1726,0.1759,0.18,0.1841,0.1895,0.1939,0.2032,0.2048,0.21,0.2094,0.2159,0.2102,0.2104,0.2099,0.2098,0.2105,0.2172,0.2174,0.2175,0.2177,0,0.1673,0.1671,0.1714,0.1758,0.1795,0.183,0.1863,0.189,0.1889,0.1928,0.1985,0.2018,0.2086,0.2142,0.2193,0.2212,0.2197,0.2194,0.2212,0.2218,0.2216,0.2222,0.2019,0.2191,0.2189,0.2188,0.2187,0.2187,0.1782,0.1826,0.1854,0.1904,0.1927,0.1959,0.2002,0.2014,0.206,0.2114,0.2108,0.2173,0.2206,0.2272,0.2296,0.2348,0.2327,0.2351,0.2358,0.2366,0.2374,0.2205,0.2357,0.2357,0.2356,0.2356,0.2356,0,0.1933,0.1949,0.1995,0.2041,0.2081,0.2058,0.2094,0.213,0.2186,0.2217,0.226,0.2328,0.2382,0.2402,0.2456,0.2495,0.2489,0.251,0.2509,0.2514,0.2388,0.2369,0.2514,0.2513,0.2513,0.2513,0.2513,0.2513,0.2017,0.2091,0.2093,0.218,0.2196,0.2257,0.228,0.2311,0.2336,0.2411,0.2455,0.2467,0.2496,0.2551,0.2602,0.2606,0.2629,0.2654,0.2656,0.2539,0.2523,0.2508,0.249,0.2658,0.2658,0.2779,0.278,0.2781]},{"header":{"parameterUnit":"m.s-1","parameterCategory":1,"la1":30.2991,"la2":30.254,"lo1":-89.0895,"lo2":-89.0444,"dy":0.0017,"dx":0.0017,"nx":28,"ny":28,"refTime":"2023-07-23T09:00:00:Z","depth":0,"parameterNumber":3,"parameterNumberName":"V-component_of_WINDS"},"data":[0,0,0,0,0,0,0,0,0,0,0,0,0,0,0,0,0,0,0,0,0,0,0,0,0,0,0,0,0,0,0,0,0,0,0,0,0,0,0,0,0,0,0,0,0,0,0,0,0,0,0,0,0,0,0,0,0,0,-2.7258,-2.7257,0,-2.7217,-2.7216,-2.7216,-2.7247,-2.7248,-2.725,-2.7251,-2.72,-2.7197,-2.7194,0,0,0,0,0,0,0,0,0,0,0,0,0,-2.7356,-2.7354,-2.7258,-2.7257,-2.7257,-2.7217,-2.7216,-2.7216,-2.7247,-2.7248,-2.725,-2.7251,-2.7201,-2.7197,-2.7194,0,0,0,0,0,0,0,0,0,0,0,0,0,-2.7314,-2.7354,-2.7258,-2.7268,-2.7268,-2.7217,-2.7216,-2.7216,-2.7246,-2.7248,-2.725,-2.7252,-2.7202,-2.7198,-2.7194,-2.7128,0,0,-2.7182,-2.718,0,0,0,0,0,0,0,0,-2.7316,-2.731,-2.7267,-2.7267,-2.7267,-2.7239,-2.7232,-2.7186,-2.7246,-2.7254,-2.7251,-2.7253,-2.7211,-2.7206,-2.7193,-2.7126,-2.7124,-2.7181,-2.7179,-2.7177,-2.7176,0,0,0,0,0,0,0,-2.7319,-2.7312,-2.7241,-2.7266,-2.7266,-2.7272,-2.7268,-2.7224,-2.7221,-2.7254,-2.7256,-2.7251,-2.7211,-2.7197,-2.7192,-2.7123,-2.7181,-2.7178,-2.7175,-2.7174,-2.7,-2.6998,0,0,0,0,0,0,-2.7322,-2.7315,-2.7243,-2.724,-2.7298,-2.7268,-2.7264,-2.7246,-2.7222,-2.722,-2.7249,-2.7253,-2.7203,-2.7197,-2.7191,-2.7112,-2.7177,-2.7174,-2.7171,-2.7002,-2.6999,-2.6997,0,0,0,0,0,0,-2.7324,-2.7316,-2.7244,-2.7278,-2.7269,-2.7265,-2.7244,-2.7244,-2.723,-2.7219,-2.7217,-2.7236,-2.7204,-2.7196,-2.7144,-2.7111,-2.7172,-2.7168,-2.7005,-2.7001,-2.6998,-2.6955,0,0,0,0,0,0,-2.7327,-2.7316,-2.7293,-2.7277,-2.7268,-2.72,-2.7242,-2.7242,-2.7225,-2.7228,-2.7206,-2.7204,-2.7205,-2.715,-2.714,-2.7107,-2.7165,-2.7008,-2.7003,-2.6999,-2.6959,-2.6951,-2.6943,0,0,0,0,0,-2.733,-2.728,-2.7291,-2.7282,-2.7238,-2.7198,-2.7193,-2.7198,-2.7222,-2.7197,-2.719,-2.7205,-2.7117,-2.7144,-2.7134,-2.7098,-2.701,-2.7004,-2.6999,-2.6963,-2.6952,-2.6943,0,0,0,0,0,0,-2.7287,-2.7278,-2.729,-2.7234,-2.7217,-2.7204,-2.7172,-2.7186,-2.716,-2.7164,-2.7169,-2.7164,-2.7109,-2.7099,-2.713,-2.7034,-2.7067,-2.7059,-2.7043,-2.7032,-2.7024,-2.7027,-2.7162,0,0,0,0,0,-2.7272,-2.7243,-2.7235,-2.7186,-2.7178,-2.7177,-2.7159,-2.7166,-2.7147,-2.7139,-2.7128,-2.7107,-2.7075,-2.7053,-2.7023,-2.6959,-2.6954,-2.6929,-2.6921,-2.6915,-2.6907,-2.6873,-2.6862,-2.698,-2.698,-2.698,0,0,-2.7238,-2.723,-2.721,-2.7177,-2.7165,-2.7133,-2.717,-2.7134,-2.7109,-2.7133,-2.7084,-2.7075,-2.7052,-2.6994,-2.6968,-2.6983,-2.6874,-2.6908,-2.6903,-2.6899,-2.6866,-2.6855,-2.6845,-2.6977,-2.6977,-2.6978,0,0,-2.7161,-2.7152,-2.711,-2.7099,-2.7081,-2.7081,-2.7072,-2.7057,-2.7053,-2.7005,-2.7022,-2.6992,-2.6936,-2.692,-2.6904,-2.6824,-2.6836,-2.6813,-2.677,-2.6736,-2.6727,-2.6718,-2.6689,-2.6678,-2.6807,-2.6807,-2.6806,0,-2.712,-2.7075,-2.7086,-2.705,-2.7035,-2.7059,-2.7015,-2.7002,-2.6974,-2.6962,-2.6982,-2.6914,-2.69,-2.6839,-2.6819,-2.6806,-2.6794,-2.6815,-2.6728,-2.6719,-2.6712,-2.6683,-2.6672,-2.6804,-2.6804,-2.6804,-2.6805,0,-2.7025,-2.6994,-2.6962,-2.6939,-2.692,-2.688,-2.6884,-2.6863,-2.6872,-2.6869,-2.682,-2.6805,-2.6773,-2.6759,-2.6765,-2.6698,-2.6709,-2.6728,-2.676,-2.6698,-2.6671,-2.666,-2.68,-2.6801,-2.6802,-2.6802,0,0,-2.6916,-2.6903,-2.689,-2.6881,-2.6865,-2.6839,-2.68,-2.6772,-2.6754,-2.6735,-2.6701,-2.6656,-2.6674,-2.6656,-2.6661,-2.6632,-2.6568,-2.6654,-2.6654,-2.6638,-2.6493,-2.6477,-2.6465,-2.6578,-2.6576,-2.6574,-2.6494,0,-2.6837,-2.6773,-2.6783,-2.672,-2.669,-2.6714,-2.668,-2.6666,-2.6663,-2.6636,-2.6632,-2.66,-2.6627,-2.6617,-2.6589,-2.6582,-2.6539,-2.6588,-2.6544,-2.6542,-2.6547,-2.6451,-2.6434,-2.6359,-2.6484,-2.6482,-2.6481,0,-2.6735,-2.6716,-2.6651,-2.6641,-2.6629,-2.6599,-2.6575,-2.6549,-2.6533,-2.6533,-2.6515,-2.6526,-2.6486,-2.6522,-2.6465,-2.6498,-2.6481,-2.6476,-2.6473,-2.6467,-2.6506,-2.6441,-2.6335,-2.6324,-2.6465,-2.6466,-2.6467,0,-2.666,-2.6618,-2.6574,-2.6565,-2.6553,-2.6531,-2.6525,-2.6511,-2.6494,-2.6472,-2.6461,-2.6434,-2.6418,-2.6396,-2.6398,-2.6424,-2.634,-2.6376,-2.6337,-2.6337,-2.6316,-2.6317,-2.6205,-2.6308,-2.6309,-2.6309,-2.6309,0,-2.657,-2.6528,-2.6541,-2.6513,-2.6468,-2.6481,-2.6434,-2.643,-2.6418,-2.6389,-2.6408,-2.6379,-2.6386,-2.6357,-2.6359,-2.6311,-2.6304,-2.6301,-2.6302,-2.6299,-2.6299,-2.6286,-2.629,-2.6306,-2.6306,-2.6307,-2.6308,0,-2.6477,-2.6485,-2.6438,-2.6432,-2.643,-2.6396,-2.639,-2.6363,-2.6364,-2.6327,-2.6318,-2.6318,-2.6285,-2.6287,-2.6249,-2.625,-2.6192,-2.6199,-2.6198,-2.6199,-2.6159,-2.6162,-2.6033,-2.6016,-2.6132,-2.6131,-2.613,0,-2.6418,-2.6388,-2.638,-2.6363,-2.6356,-2.6329,-2.6313,-2.6324,-2.6306,-2.6287,-2.6262,-2.6233,-2.6209,-2.6155,-2.615,-2.6121,-2.6127,-2.6084,-2.6122,-2.612,-2.6124,-2.6126,-2.6122,-2.6075,-2.6074,-2.6073,-2.6072,0,-2.6312,-2.6318,-2.6296,-2.6275,-2.6256,-2.6239,-2.6224,-2.6209,-2.6219,-2.6197,-2.6166,-2.6148,-2.6112,-2.6081,-2.6054,-2.6045,-2.6059,-2.6061,-2.605,-2.6045,-2.6045,-2.6043,-2.6175,-2.6062,-2.6063,-2.6064,-2.6064,-2.6065,-2.6233,-2.6208,-2.6199,-2.6174,-2.6165,-2.6151,-2.6126,-2.6126,-2.6101,-2.6074,-2.6082,-2.6046,-2.6032,-2.5998,-2.5987,-2.5957,-2.5972,-2.5957,-2.5953,-2.5948,-2.5943,-2.6052,-2.5953,-2.5953,-2.5953,-2.5953,-2.5954,0,-2.6127,-2.6124,-2.6101,-2.6081,-2.6061,-2.6081,-2.6066,-2.6047,-2.6017,-2.6004,-2.5981,-2.5946,-2.5917,-2.5911,-2.5883,-2.586,-2.5866,-2.5852,-2.5853,-2.585,-2.5932,-2.5944,-2.5848,-2.5848,-2.5848,-2.5848,-2.5848,-2.5848,-2.6069,-2.6027,-2.6032,-2.5986,-2.5982,-2.595,-2.594,-2.5927,-2.5917,-2.5877,-2.5855,-2.5853,-2.5842,-2.5814,-2.5788,-2.5786,-2.5774,-2.5758,-2.5759,-2.5834,-2.5845,-2.5855,-2.5866,-2.5755,-2.5755,-2.5679,-2.5679,-2.5678]}]]